Weather History for Winchester, TN

Change the Weather History Date:

Saturday, August 10, 2013

  Actual Average (KTHA) Record (KTHA)
Temperature  
Mean Temperature 78 °F -  
Max Temperature 86 °F 87 °F 89 °F (2014)
Min Temperature 71 °F 66 °F 71 °F (2013)
Cooling Degree Days 14    
Growing Degree Days 28 (Base 50)    
Moisture  
Dew Point 73 °F    
Average Humidity 87    
Maximum Humidity 100    
Minimum Humidity 66    
Precipitation  
Precipitation 0.00 in - - ()
Sea Level Pressure  
Sea Level Pressure 30.12 in    
Wind  
Wind Speed 2 mph (SW)    
Max Wind Speed 9 mph    
Max Gust Speed -    
Visibility 9 miles    
Events      
Averages and records for this station are not official NWS values.
T = Trace of Precipitation, MM = Missing Value Source: NWS Daily Summary

Daily Weather History Graph

Daily Weather History Graph

Search for Another Location

Airport:

Trip Planner

Search our weather history database for the weather conditions in past years. The results will help you decide how hot, cold, wet, or windy it might be!

Date:

Astronomy

Aug. 10, 2013 Rise Set
Actual Time 7:00 AM EDT 8:38 PM EDT
Civil Twilight 6:33 AM EDT 9:05 PM EDT
Nautical Twilight 6:00 AM EDT 9:38 PM EDT
Astronomical Twilight 5:25 AM EDT 10:12 PM EDT
Moon 10:35 AM EDT (8/10) 10:31 PM EDT (8/10)
Length of Visible Light 14h 32m
Length of Day
13h 37m
Waxing Crescent, 14% of the Moon is Illuminated
Aug 10
Waxing Crescent
Aug 14
First Quarter
Aug 20
Full
Aug 28
Last Quarter
Sep 5
New

Hourly Weather History & Observations

Time (EDT) Temp. Heat Index Dew Point Humidity Pressure Visibility Wind Dir Wind Speed Gust Speed Precip Events Conditions
12:15 AM 75.2 °F - 73.4 °F 94% 30.10 in 10.0 mi SE 3.5 mph - N/A   Clear
12:35 AM 75.2 °F - 73.4 °F 94% 30.10 in 10.0 mi Calm Calm - N/A   Clear
12:55 AM 75.2 °F - 73.4 °F 94% 30.10 in 10.0 mi Calm Calm - N/A   Clear
1:35 AM 73.4 °F - 71.6 °F 94% 30.09 in 10.0 mi Calm Calm - N/A   Clear
1:55 AM 73.4 °F - 73.4 °F 100% 30.09 in 10.0 mi Calm Calm - N/A   Clear
2:15 AM 73.4 °F - 71.6 °F 94% 30.09 in 10.0 mi Calm Calm - N/A   Clear
2:35 AM 73.4 °F - 71.6 °F 94% 30.09 in 10.0 mi ESE 3.5 mph - N/A   Clear
2:55 AM 73.4 °F - 71.6 °F 94% 30.09 in 10.0 mi Calm Calm - N/A   Clear
3:15 AM 73.4 °F - 71.6 °F 94% 30.09 in 10.0 mi Calm Calm - N/A   Clear
3:35 AM 73.4 °F - 71.6 °F 94% 30.09 in 10.0 mi SE 3.5 mph - N/A   Clear
3:55 AM 73.4 °F - 71.6 °F 94% 30.09 in 10.0 mi Calm Calm - N/A   Clear
4:15 AM 73.4 °F - 71.6 °F 94% 30.09 in 10.0 mi SE 3.5 mph - N/A   Clear
4:35 AM 71.6 °F - 71.6 °F 100% 30.10 in 10.0 mi Calm Calm - N/A   Clear
4:55 AM 73.4 °F - 71.6 °F 94% 30.10 in 10.0 mi Calm Calm - N/A   Clear
5:15 AM 73.4 °F - 71.6 °F 94% 30.09 in 10.0 mi SE 3.5 mph - N/A   Clear
5:35 AM 71.6 °F - 69.8 °F 94% 30.10 in 10.0 mi Calm Calm - N/A   Clear
5:55 AM 71.6 °F - 71.6 °F 100% 30.10 in 10.0 mi Calm Calm - N/A   Clear
6:15 AM 71.6 °F - 71.6 °F 100% 30.10 in 9.0 mi Calm Calm - N/A   Clear
6:35 AM 71.6 °F - 71.6 °F 100% 30.11 in 8.0 mi Calm Calm - N/A   Clear
6:55 AM 71.6 °F - 71.6 °F 100% 30.11 in 10.0 mi Calm Calm - N/A   Clear
7:15 AM 71.6 °F - 69.8 °F 94% 30.12 in 10.0 mi Calm Calm - N/A   Clear
7:35 AM 71.6 °F - 71.6 °F 100% 30.13 in 10.0 mi Calm Calm - N/A   Clear
7:55 AM 73.4 °F - 71.6 °F 94% 30.13 in 10.0 mi Calm Calm - N/A   Clear
8:15 AM 73.4 °F - 71.6 °F 94% 30.13 in 10.0 mi Calm Calm - N/A   Partly Cloudy
8:35 AM 75.2 °F - 73.4 °F 94% 30.13 in 10.0 mi SE 3.5 mph - N/A   Mostly Cloudy
8:55 AM 75.2 °F - 73.4 °F 94% 30.14 in 10.0 mi Calm Calm - N/A   Overcast
9:15 AM 78.8 °F - 73.4 °F 83% 30.14 in 10.0 mi Calm Calm - N/A   Scattered Clouds
9:35 AM 80.6 °F 85.4 °F 73.4 °F 79% 30.14 in 10.0 mi Calm Calm - N/A   Mostly Cloudy
9:55 AM 78.8 °F - 73.4 °F 83% 30.15 in 10.0 mi West 3.5 mph - N/A   Mostly Cloudy
10:15 AM 78.8 °F - 73.4 °F 83% 30.15 in 10.0 mi West 3.5 mph - N/A   Mostly Cloudy
10:35 AM 80.6 °F 85.4 °F 73.4 °F 79% 30.15 in 10.0 mi West 5.8 mph - N/A   Overcast
10:55 AM 78.8 °F - 75.2 °F 89% 30.17 in 3.0 mi WSW 4.6 mph - N/A   Overcast
11:15 AM 78.8 °F - 75.2 °F 89% 30.17 in 10.0 mi West 5.8 mph - N/A   Mostly Cloudy
11:35 AM 78.8 °F - 75.2 °F 89% 30.17 in 3.0 mi West 4.6 mph - N/A   Mostly Cloudy
11:55 AM 78.8 °F - 75.2 °F 89% 30.16 in 10.0 mi Calm Calm - N/A   Overcast
12:15 PM 80.6 °F 86.2 °F 75.2 °F 84% 30.16 in 10.0 mi WNW 4.6 mph - N/A   Overcast
12:35 PM 80.6 °F 85.4 °F 73.4 °F 79% 30.15 in 10.0 mi Variable 3.5 mph - N/A   Mostly Cloudy
12:55 PM 82.4 °F 88.2 °F 73.4 °F 74% 30.15 in 10.0 mi Calm Calm - N/A   Mostly Cloudy
1:15 PM 82.4 °F 89.5 °F 75.2 °F 79% 30.14 in 10.0 mi West 3.5 mph - N/A   Mostly Cloudy
1:35 PM 84.2 °F 90.9 °F 73.4 °F 70% 30.14 in 10.0 mi Variable 3.5 mph - N/A   Scattered Clouds
1:55 PM 84.2 °F 90.9 °F 73.4 °F 70% 30.13 in 10.0 mi West 3.5 mph - N/A   Mostly Cloudy
2:15 PM 86.0 °F 95.1 °F 75.2 °F 70% 30.13 in 10.0 mi SSW 4.6 mph - N/A   Scattered Clouds
2:35 PM 86.0 °F 93.4 °F 73.4 °F 66% 30.12 in 10.0 mi West 3.5 mph - N/A   Scattered Clouds
2:55 PM 84.2 °F 92.3 °F 75.2 °F 74% 30.12 in 10.0 mi SW 6.9 mph - N/A   Mostly Cloudy
3:15 PM 84.2 °F 92.3 °F 75.2 °F 74% 30.12 in 10.0 mi SSW 3.5 mph - N/A   Partly Cloudy
3:35 PM 84.2 °F 92.3 °F 75.2 °F 74% 30.11 in 10.0 mi Variable 4.6 mph - N/A   Clear
3:55 PM 82.4 °F 89.5 °F 75.2 °F 79% 30.10 in 10.0 mi SSE 9.2 mph - N/A   Clear
4:15 PM 82.4 °F 89.5 °F 75.2 °F 79% 30.10 in 10.0 mi South 9.2 mph - N/A   Clear
4:35 PM 82.4 °F 89.5 °F 75.2 °F 79% 30.10 in 10.0 mi Calm Calm - N/A   Scattered Clouds
4:55 PM 80.6 °F 84.6 °F 71.6 °F 74% 30.11 in 10.0 mi Variable 3.5 mph - N/A   Mostly Cloudy
5:15 PM 80.6 °F 84.6 °F 71.6 °F 74% 30.11 in 10.0 mi Calm Calm - N/A   Partly Cloudy
5:35 PM 80.6 °F 85.4 °F 73.4 °F 79% 30.11 in 9.0 mi Calm Calm - N/A   Scattered Clouds
5:55 PM 80.6 °F 84.6 °F 71.6 °F 74% 30.11 in 10.0 mi Calm Calm - N/A   Partly Cloudy
6:15 PM 80.6 °F 83.9 °F 69.8 °F 70% 30.11 in 10.0 mi Calm Calm - N/A   Partly Cloudy
6:35 PM 82.4 °F 87.2 °F 71.6 °F 70% 30.10 in 10.0 mi Calm Calm - N/A   Clear
6:55 PM 80.6 °F 84.6 °F 71.6 °F 74% 30.10 in 10.0 mi Calm Calm - N/A   Clear
7:15 PM 78.8 °F - 73.4 °F 83% 30.10 in 10.0 mi Calm Calm - N/A   Clear
7:35 PM 78.8 °F - 73.4 °F 83% 30.11 in 10.0 mi Calm Calm - N/A   Clear
7:55 PM 78.8 °F - 73.4 °F 83% 30.11 in 10.0 mi Calm Calm - N/A   Clear
8:15 PM 78.8 °F - 73.4 °F 83% 30.11 in 10.0 mi Calm Calm - N/A   Clear
8:35 PM 77.0 °F - 73.4 °F 89% 30.11 in 10.0 mi Calm Calm - N/A   Clear
8:55 PM 75.2 °F - 73.4 °F 94% 30.12 in 10.0 mi Calm Calm - N/A   Clear
9:15 PM 75.2 °F - 73.4 °F 94% 30.12 in 10.0 mi Calm Calm - N/A   Clear
9:35 PM 75.2 °F - 73.4 °F 94% 30.12 in 10.0 mi Calm Calm - N/A   Clear
9:55 PM 73.4 °F - 71.6 °F 94% 30.13 in 10.0 mi Calm Calm - N/A   Clear
10:15 PM 75.2 °F - 73.4 °F 94% 30.13 in 4.0 mi Calm Calm - N/A   Clear
10:35 PM 73.4 °F - 73.4 °F 100% 30.13 in 3.0 mi Calm Calm - N/A   Clear
10:55 PM 71.6 °F - 71.6 °F 100% 30.14 in 1.8 mi Calm Calm - N/A   Clear
11:15 PM 71.6 °F - 71.6 °F 100% 30.14 in 1.5 mi Calm Calm - N/A   Clear
11:35 PM 73.4 °F - 73.4 °F 100% 30.14 in 3.0 mi Calm Calm - N/A   Clear
11:55 PM 71.6 °F - 71.6 °F 100% 30.14 in 3.0 mi Calm Calm - N/A   Clear